Вернуться в каталог

CZ-6A DEB

АктивенSSO
NORAD 56625·DEBRIS·🇨🇳 China

Запущен Nov 11, 2022 с Taiyuan Satellite Launch Center

Loading…

Ближайшие Пролёты (ближайшие 24 часа)

TLE

СвежийSource: Space-Track

Эпоха: Sep 14, 2026, 05:55 UTC

1 56625U 22151AEZ 26257.24701552  .00000521  00000-0  34789-3 0  9995
2 56625  98.9033 245.0797 0081251 133.5636 227.2315 14.03775408173581

Отслеживайте CZ-6A DEB в реальном времени с AllMySat

Download on the App Store